TimeEDT,TemperatureF,Dew PointF,Humidity,Sea Level PressureIn,VisibilityMPH,Wind Direction,Wind SpeedMPH,Gust SpeedMPH,PrecipitationIn,Events,Conditions,WindDirDegrees,DateUTC
12:15 AM,59.9,53.6,80,29.97,10.0,North,-9999.0,-,N/A,,Clear,0,2013-04-11 04:15:00
12:35 AM,59.0,53.6,82,29.98,10.0,North,-9999.0,-,N/A,,Clear,0,2013-04-11 04:35:00
12:55 AM,58.6,53.6,83,29.98,10.0,North,-9999.0,-,N/A,,Clear,0,2013-04-11 04:55:00
1:15 AM,58.5,53.6,84,29.97,10.0,North,-9999.0,-,N/A,,Clear,0,2013-04-11 05:15:00
1:35 AM,58.1,53.6,85,29.96,10.0,North,-9999.0,-,N/A,,Clear,0,2013-04-11 05:35:00
1:55 AM,57.4,53.2,86,29.96,10.0,North,-9999.0,-,N/A,,Clear,0,2013-04-11 05:55:00
2:15 AM,57.2,53.1,86,29.95,10.0,North,-9999.0,-,N/A,,Clear,0,2013-04-11 06:15:00
2:35 AM,56.5,52.9,88,29.96,10.0,North,-9999.0,-,N/A,,Clear,0,2013-04-11 06:35:00
2:55 AM,56.3,52.7,88,29.96,10.0,North,-9999.0,-,N/A,,Clear,0,2013-04-11 06:55:00
3:15 AM,56.3,52.9,88,29.95,10.0,North,-9999.0,-,N/A,,Clear,0,2013-04-11 07:15:00
3:35 AM,55.8,52.5,89,29.96,10.0,North,-9999.0,-,N/A,,Clear,0,2013-04-11 07:35:00
3:55 AM,55.4,52.3,89,29.95,10.0,North,-9999.0,-,N/A,,Clear,0,2013-04-11 07:55:00
4:15 AM,54.7,52.2,91,29.95,10.0,North,-9999.0,-,N/A,,Clear,0,2013-04-11 08:15:00
4:35 AM,54.7,52.2,91,29.96,10.0,North,-9999.0,-,N/A,,Clear,0,2013-04-11 08:35:00
4:55 AM,54.9,52.7,92,29.96,10.0,North,-9999.0,-,N/A,,Clear,0,2013-04-11 08:55:00
5:15 AM,54.5,52.3,92,29.95,10.0,North,-9999.0,-,N/A,,Clear,0,2013-04-11 09:15:00
5:35 AM,54.5,52.7,94,29.95,10.0,North,-9999.0,-,N/A,,Clear,0,2013-04-11 09:35:00
5:55 AM,54.0,52.2,94,29.95,10.0,North,-9999.0,-,N/A,,Clear,0,2013-04-11 09:55:00
6:15 AM,53.6,52.2,95,29.96,7.0,North,-9999.0,-,N/A,,Clear,0,2013-04-11 10:15:00
6:35 AM,53.2,51.8,95,29.96,7.0,North,-9999.0,-,N/A,,Clear,0,2013-04-11 10:35:00
6:55 AM,52.7,51.3,95,29.96,7.0,North,-9999.0,-,N/A,,Clear,0,2013-04-11 10:55:00
7:15 AM,52.7,51.3,95,29.96,5.0,North,-9999.0,-,N/A,,Clear,0,2013-04-11 11:15:00
7:35 AM,53.2,51.8,95,29.98,5.0,North,-9999.0,-,N/A,,Clear,0,2013-04-11 11:35:00
7:55 AM,54.0,52.5,95,29.98,5.0,North,-9999.0,-,N/A,,Clear,0,2013-04-11 11:55:00
8:15 AM,56.8,54.1,91,29.98,5.0,North,-9999.0,-,N/A,,Clear,0,2013-04-11 12:15:00
8:35 AM,58.6,55.0,88,29.98,7.0,North,-9999.0,-,N/A,,Clear,0,2013-04-11 12:35:00
8:55 AM,62.2,56.3,81,29.98,5.0,North,-9999.0,-,N/A,,Haze,0,2013-04-11 12:55:00
9:35 AM,68.0,57.4,69,29.96,10.0,North,-9999.0,-,N/A,,Clear,0,2013-04-11 13:35:00
9:55 AM,72.9,58.1,60,29.96,10.0,North,-9999.0,-,N/A,,Clear,0,2013-04-11 13:55:00
10:15 AM,73.8,57.2,56,29.95,10.0,North,-9999.0,-,N/A,,Clear,0,2013-04-11 14:15:00
11:15 AM,76.8,56.5,49,29.95,10.0,North,-9999.0,-,N/A,,Clear,0,2013-04-11 15:15:00
11:55 AM,79.5,56.3,45,29.93,10.0,North,-9999.0,-,N/A,,Clear,0,2013-04-11 15:55:00
12:15 PM,80.8,56.3,43,29.92,10.0,North,-9999.0,-,N/A,,Clear,0,2013-04-11 16:15:00
12:35 PM,81.0,55.8,42,29.91,10.0,North,-9999.0,-,N/A,,Scattered Clouds,0,2013-04-11 16:35:00
1:15 PM,81.7,52.7,37,29.89,10.0,North,-9999.0,-,N/A,,Scattered Clouds,0,2013-04-11 17:15:00
1:35 PM,83.3,52.9,35,29.87,10.0,North,-9999.0,-,N/A,,Scattered Clouds,0,2013-04-11 17:35:00
1:55 PM,82.0,53.4,37,29.86,10.0,North,-9999.0,-,N/A,,Scattered Clouds,0,2013-04-11 17:55:00
2:15 PM,82.8,53.1,36,29.85,10.0,North,-9999.0,-,N/A,,Clear,0,2013-04-11 18:15:00
2:35 PM,83.5,53.1,35,29.84,10.0,North,-9999.0,-,N/A,,Clear,0,2013-04-11 18:35:00
2:55 PM,84.4,51.6,32,29.83,10.0,North,-9999.0,-,N/A,,Scattered Clouds,0,2013-04-11 18:55:00
3:15 PM,84.7,52.0,32,29.82,10.0,North,-9999.0,-,N/A,,Scattered Clouds,0,2013-04-11 19:15:00
3:35 PM,84.4,51.6,32,29.80,10.0,North,-9999.0,-,N/A,,Clear,0,2013-04-11 19:35:00
3:55 PM,84.6,48.9,29,29.79,10.0,North,-9999.0,-,N/A,,Clear,0,2013-04-11 19:55:00
4:15 PM,85.8,48.0,27,29.79,10.0,North,-9999.0,-,N/A,,Clear,0,2013-04-11 20:15:00
4:35 PM,85.1,46.0,26,29.77,10.0,North,-9999.0,-,N/A,,Clear,0,2013-04-11 20:35:00
4:55 PM,85.5,43.3,23,29.76,10.0,North,-9999.0,-,N/A,,Clear,0,2013-04-11 20:55:00
5:15 PM,85.8,43.9,23,29.75,10.0,North,-9999.0,-,N/A,,Clear,0,2013-04-11 21:15:00
5:35 PM,85.1,45.0,25,29.75,10.0,North,-9999.0,-,N/A,,Clear,0,2013-04-11 21:35:00
5:55 PM,84.2,46.0,26,29.75,10.0,North,-9999.0,-,N/A,,Mostly Cloudy,0,2013-04-11 21:55:00
6:15 PM,83.5,47.8,29,29.75,10.0,North,-9999.0,-,N/A,,Overcast,0,2013-04-11 22:15:00
6:35 PM,83.3,48.2,29,29.75,10.0,North,-9999.0,-,N/A,,Mostly Cloudy,0,2013-04-11 22:35:00
6:55 PM,82.9,48.4,30,29.75,10.0,North,-9999.0,-,N/A,,Mostly Cloudy,0,2013-04-11 22:55:00
7:15 PM,81.5,49.5,33,29.75,10.0,North,-9999.0,-,N/A,,Overcast,0,2013-04-11 23:15:00
7:35 PM,78.3,51.6,39,29.74,10.0,North,-9999.0,-,N/A,,Mostly Cloudy,0,2013-04-11 23:35:00
7:55 PM,79.0,52.9,40,29.73,10.0,North,-9999.0,-,N/A,,Scattered Clouds,0,2013-04-11 23:55:00
8:15 PM,78.6,53.2,41,29.73,10.0,North,-9999.0,-,N/A,,Scattered Clouds,0,2013-04-12 00:15:00
8:35 PM,77.4,54.1,44,29.74,10.0,North,-9999.0,-,N/A,,Mostly Cloudy,0,2013-04-12 00:35:00
8:55 PM,77.9,53.6,43,29.75,10.0,North,-9999.0,-,N/A,,Overcast,0,2013-04-12 00:55:00
9:15 PM,77.5,53.2,43,29.73,10.0,North,-9999.0,-,N/A,,Overcast,0,2013-04-12 01:15:00
9:35 PM,75.7,54.0,47,29.73,10.0,North,-9999.0,-,N/A,,Mostly Cloudy,0,2013-04-12 01:35:00
9:55 PM,74.3,54.0,49,29.73,10.0,North,-9999.0,-,N/A,,Scattered Clouds,0,2013-04-12 01:55:00
10:15 PM,74.7,54.1,49,29.73,10.0,North,-9999.0,-,N/A,,Clear,0,2013-04-12 02:15:00
10:35 PM,74.5,54.5,50,29.74,10.0,North,-9999.0,-,N/A,,Mostly Cloudy,0,2013-04-12 02:35:00
10:55 PM,72.3,59.7,64,29.75,7.0,North,-9999.0,-,N/A,Rain,Rain,0,2013-04-12 02:55:00
11:15 PM,67.1,62.1,84,29.73,10.0,North,-9999.0,-,N/A,Rain,Light Rain,0,2013-04-12 03:15:00
11:35 PM,64.6,63.3,96,29.73,10.0,North,-9999.0,-,N/A,,Overcast,0,2013-04-12 03:35:00
11:55 PM,64.6,63.1,95,29.73,10.0,North,-9999.0,-,N/A,,Overcast,0,2013-04-12 03:55:00